C/2017 K6 ( Jacques )

Japanese version
Home page
Updated on November 23, 2017

---------------------------------------------------------------------

* Profile

Discovery Date May 29, 2017
Magnitude 17.5 mag
Discoverer Cristovao Jacques (SONEAR Observatory at Oliveira)

* Pictures

* Orbital Elements

Epoch 2018 Jan. 2.0 TT = JDT 2458120.5
T 2018 Jan. 3.13745 TT                                  MPCW
q   2.0027882            (2000.0)            P               Q
z  +0.0009030      Peri.  303.83771     +0.49566106     -0.22850078
 +/-0.0000030      Node    85.05450     +0.75133504     +0.59677386
e   0.9981914      Incl.   57.25113     -0.43567852     +0.76918682
From 150 observations 2017 May 29-Oct. 30, mean residual 0".5.

* Finding Charts

* Magnitudes Graph

        m1 = 11.8 + 5 log d + 7.5 log r

---------------------------------------------------------------------

The orbital elements are published on M.P.E.C. 2017-V13.
The charts are made with StellaNavigator Ver.10 (AstroArts).
The magnitudes graphs are made with Comet for Windows.

---------------------------------------------------------------------

Copyright(C) Seiichi Yoshida (comet@aerith.net). All rights reserved.